STARLINK-1153, 45080

Orbit data source: Space-Track

STARLINK-1153, 45080 is a payload satellite owned by SpaceX/Seattle (US) in LEO that was launched on Wed, 29 Jan 2020 UTC via an FALCON 9 launch vehicle from the Air Force Eastern Test Range (AFETR). Payload-class satellites include a variety of spacecraft equipped with specific instruments for various scientific and technological missions. These include communications satellites like Starlink; space stations such as the ISS; scientific satellites like the Hubble; Earth observation satellites from companies like Planet Labs, Umbra, and HawkEye 360; GPS; miniature CubeSats for education and research; and military/defense satellites.

Loading next visibility...
Identifier
45080, 2020-006AN
Orbit
LEO
Country
Flag of USUS
Related business
Manufacturer
SpaceX/Seattle
Mission
Partially operational Commercial Communications
Bus & Motor
STARLINK, Unknown motor
Mass
260 kg wet, ~248 kg dry
Launch date (UTC)
2020-01-29 (6 years ago)
Launch vehicle
FALCON 9
Launch site
Air Force Eastern Test Range (AFETR)
Object type
Payload
Rocket body
Debris
Shape & HBR
Box + 1 Pan, 10.1 m
Radar Cross Section
13.562 m², Large (>1 m²)

Expand to show TLE details & history
Last TLE update: 2 days ago

TLE from 2 days ago
0 STARLINK-1153
1 45080U 20006AN  26171.23322994  .00041798  00000-0  10834-2 0  9993
2 45080  53.1570 138.7511 0005715  10.0414 350.0704 15.38624477352617
Epoch: 2026-06-20T05:35Z
TLE epoch observation values (Epoch: 2026-06-20T05:35:51.066Z)
Latitude
-0°
Longitude
146.33753°
Altitude
447.235 km
Speed
7.647 km/s
True Right ascension
09h 15m 00s
True Declination
0° 00' 00"
Sunlit
Object was in daylight at epoch
Visualization orbit readout
Latitude
Unknown
Longitude
Unknown
Altitude
Unknown
Speed
Unknown
Apparent Right ascension
Unknown
Apparent Declination
Unknown
Sunlit
N/A
Visualization observer readout
Local Sidereal Time
21:41:30
Azimuth
Unknown
Elevation
Unknown
Doppler factor
Unknown
Orbital elements
Apogee altitude
454.336 km
Perigee altitude
446.531 km
Semi-major axis
6,828.571 km
Eccentricity
0.00057
Inclination
53.157°
RAAN
138.7511°
Arg. of periapsis
10.0414°
True anomaly
350.0591°
Mean anomaly
350.0704°
Eccentric anomaly
350.06475°
Mean motion
3.84635 °/min
Orbital period
93.6 mins
BSTAR
0.0010834
Loading maneuver chart data...
Computing Atmospheric mass density...

Documentation

Showing up to 5 results
|